RH
100 100 100 100 100 100 100 100 100 97 100 100 100 90 100 100 100 90 79 63 66 50 45 39 44 52 54 54 58 51 46 41 39 40 42 43 45 53
100 100 100 100 100 100 100 100 89 97 100 100 100 100 100 100 90 76 76 65 56 49 42 44 47 53 54 57 58 54 49 45 44 44 44 46 49 52
100 100 100 94 88 96 100 89 98 100 100 100 100 100 100 94 88 82 75 74 52 49 45 47 56 62 62 61 58 54 48 44 43 42 43 46 50 52
100 91 75 72 83 83 96 99 100 100 98 95 100 100 100 95 89 82 84 64 55 53 51 54 65 62 62 59 57 54 48 45 44 42 44 49 50 51
54 43 44 65 81 96 100 100 100 100 100 100 100 100 99 88 91 90 69 63 58 60 58 68 68 64 60 62 59 53 49 45 41 41 43 46 46 45
31 47 70 79 88 100 100 100 100 100 100 100 100 100 89 97 94 71 65 59 71 67 75 83 71 61 62 62 58 51 46 41 41 45 46 40 38 41
54 72 75 96 100 100 100 100 100 100 100 94 96 85 96 94 74 72 62 62 77 78 83 79 75 69 64 56 48 44 43 46 48 45 37 34 34 29
82 91 100 100 100 100 100 100 100 97 72 100 90 100 90 72 74 70 56 78 93 94 87 79 70 65 56 47 45 48 53 51 44 36 34 32 26 24
100 100 100 100 100 100 100 96 78 96 100 94 100 100 79 87 74 60 64 91 96 92 84 78 66 56 51 48 50 54 53 43 34 30 26 23 24 24
100 100 98 100 100 78 94 82 97 97 100 100 99 90 78 79 61 62 79 99 100 91 85 69 60 57 54 51 53 54 45 33 28 26 26 26 26 27
53 72 98 86 98 100 95 84 99 92 98 94 78 78 77 60 61 64 96 100 97 92 76 61 59 59 56 57 55 53 36 27 28 28 27 28 31 29
100 100 97 88 90 93 99 88 100 99 86 78 76 76 57 60 61 87 98 96 92 80 73 67 65 66 64 60 51 35 27 28 28 28 31 35 34 26
97 100 95 92 100 98 99 100 95 82 78 71 64 56 56 62 84 98 98 89 80 78 72 72 70 73 76 71 40 27 27 27 28 31 39 41 36 24
100 100 100 100 100 98 94 85 80 68 60 58 57 58 69 88 99 97 87 79 76 72 71 79 78 79 80 69 38 24 25 24 25 32 36 31 22 21
100 100 100 99 92 84 83 73 61 58 70 74 82 87 90 97 89 80 78 77 76 74 79 78 80 84 80 58 36 27 26 23 27 34 31 21 17 21
100 98 83 86 84 76 66 57 61 72 85 86 82 83 90 83 76 79 81 87 79 79 82 78 82 83 73 43 31 28 25 26 30 32 29 17 15 20
87 88 83 77 62 59 59 60 68 79 82 80 85 82 78 79 82 84 92 86 84 81 73 77 82 84 62 38 31 26 25 27 31 34 28 17 13 18
83 78 66 66 69 72 70 60 63 74 73 75 79 85 91 92 93 90 86 86 89 82 75 74 68 56 39 32 27 25 25 30 32 32 25 19 11 16
77 78 80 79 83 85 77 70 72 73 80 86 89 93 100 93 85 84 90 94 90 84 79 70 51 35 31 28 27 23 26 28 30 25 23 20 14 11
93 96 89 84 84 88 82 82 85 88 92 92 94 100 95 82 88 94 95 93 83 80 78 49 30 27 25 25 29 26 20 20 19 18 17 17 14 12
100 99 92 94 91 92 90 89 90 88 82 80 80 85 86 93 98 97 94 78 79 78 54 33 26 22 23 22 19 15 9 8 10 12 13 13 10 11
100 99 98 96 88 86 82 82 84 83 83 80 88 95 99 99 98 96 75 78 73 43 34 26 23 22 17 11 10 10 8 7 8 10 10 10 8 10
100 100 99 95 94 87 88 91 88 83 84 96 100 100 98 98 95 72 79 70 42 33 26 24 23 18 10 9 8 8 7 7 7 7 7 10 8 10
Wind_Speed
93 95 98 99 100 99 96 93 90 86 86 89 97 98 99 101 98 95 89 88 89 89 78 69 59 55 57 59 60 59 57 54 51 48 46 44 42 41
100 103 101 102 100 93 90 92 88 86 89 95 98 97 99 96 92 92 88 89 91 79 71 63 57 56 59 62 62 61 58 55 54 52 50 48 47 47
107 105 103 98 92 88 87 91 87 92 94 93 101 98 94 95 94 87 89 95 81 74 67 60 58 59 63 65 65 63 59 58 58 57 56 54 52 52
108 103 97 92 88 86 88 89 93 92 97 101 97 93 94 93 86 88 91 88 76 69 63 60 60 63 66 68 67 66 63 63 63 62 59 58 58 59
104 99 95 90 84 87 91 94 92 94 106 99 93 96 92 85 87 91 92 78 73 65 62 61 65 68 70 70 69 68 68 68 68 66 63 62 64 65
98 92 88 88 86 89 94 94 91 101 93 91 96 91 83 84 90 93 80 72 70 64 62 66 69 71 72 72 72 71 72 72 68 64 65 64 61 60
90 87 87 86 91 97 100 95 98 92 91 91 89 80 82 88 93 80 73 70 66 65 66 70 71 73 74 74 74 73 71 68 66 66 66 61 58 56
87 85 90 96 96 99 90 95 87 91 84 87 78 81 88 92 82 75 70 67 66 67 68 71 74 74 76 77 73 69 67 69 69 66 62 58 58 58
90 96 100 96 95 86 87 86 83 83 82 78 80 86 92 81 75 69 67 67 68 69 70 74 76 76 78 75 71 68 70 70 67 63 62 60 60 59
90 85 84 82 81 80 78 80 79 73 75 79 85 90 81 76 70 67 67 67 67 70 73 75 77 78 78 76 70 70 70 67 66 66 64 63 63 62
71 71 70 71 71 76 78 69 71 74 79 85 84 78 73 69 67 66 65 65 68 70 74 77 78 81 80 76 71 71 67 66 67 66 65 64 64 62
59 62 68 72 72 66 67 70 74 80 84 78 76 71 67 66 67 64 64 65 66 70 76 79 79 82 82 77 72 67 64 65 66 64 63 65 64 63
63 65 62 60 62 66 71 76 79 76 75 72 71 68 66 65 63 62 63 64 67 71 76 78 81 82 80 80 74 66 65 64 63 61 62 63 62 59
55 57 59 62 66 72 76 72 73 70 69 66 63 61 60 60 60 60 62 65 68 73 75 79 82 81 80 81 78 70 67 64 59 56 58 57 55 53
56 59 62 67 71 68 69 68 66 63 60 57 56 57 57 58 58 61 63 66 71 74 77 81 82 81 80 78 77 73 70 66 59 58 56 54 50 48
57 62 64 63 65 64 61 59 57 55 54 54 54 53 54 56 59 62 65 71 74 76 79 81 82 81 80 76 74 72 69 64 63 59 57 54 45 44
58 57 59 59 58 54 52 51 50 50 50 49 50 52 55 58 62 65 69 74 77 80 81 80 80 79 78 76 74 71 67 62 60 59 53 54 43 41
55 53 50 47 49 49 48 48 47 47 46 48 51 54 57 61 65 67 71 75 78 83 85 82 78 76 73 75 72 69 65 61 58 57 52 53 43 32
46 42 45 47 45 45 46 46 46 48 51 52 53 57 61 64 67 70 73 76 81 86 86 81 77 73 72 72 75 68 61 57 54 52 47 48 47 32
41 44 47 47 47 46 44 45 46 49 51 54 57 60 64 67 68 71 75 79 84 84 82 80 75 72 70 67 68 73 61 52 50 48 44 44 42 33
43 45 45 42 42 43 43 45 46 49 52 56 58 61 63 66 69 73 78 81 79 79 80 78 76 72 69 66 63 63 61 47 42 41 41 40 35 31
44 43 42 44 45 46 47 49 52 54 57 60 63 65 66 67 70 76 78 76 76 75 73 74 72 70 65 58 55 51 49 44 36 36 38 39 35 30
46 46 46 47 48 50 51 53 56 57 59 63 66 65 66 68 73 75 72 73 72 72 72 71 70 66 58 51 46 44 42 40 38 37 34 36 35 28
Wind_Direction
283 285 288 290 294 295 296 300 301 305 306 302 307 310 310 309 308 309 309 310 312 313 309 308 304 303 306 310 309 309 309 307 305 303 301 299 293 283
282 285 288 289 292 294 294 299 302 305 304 304 308 308 308 307 306 308 308 311 312 310 308 304 302 303 307 309 309 309 307 306 305 302 298 294 290 284
281 285 287 289 291 292 295 298 303 304 306 305 307 303 304 305 306 306 309 312 310 308 305 302 301 305 308 309 308 308 305 305 304 303 298 293 289 284
280 284 285 287 290 293 295 300 301 301 303 306 301 302 303 303 304 305 308 311 308 307 304 301 302 304 308 308 308 308 306 305 303 300 296 291 288 284
280 282 283 286 290 291 296 299 299 300 302 301 299 300 301 303 305 307 309 308 308 305 303 303 302 307 308 308 308 307 305 304 302 298 295 293 289 283
278 281 283 286 290 295 299 298 297 298 293 295 297 298 300 303 305 307 308 307 306 304 305 304 305 307 309 310 308 305 303 302 299 296 295 292 287 282
278 281 284 289 295 293 294 291 293 291 292 294 298 298 301 302 306 306 305 304 306 305 305 305 307 308 308 307 307 306 304 302 300 299 297 293 289 285
281 283 289 290 293 290 284 288 287 291 293 296 296 298 302 304 304 304 304 307 306 305 304 306 308 309 308 310 309 307 305 305 303 301 298 296 293 290
280 284 284 283 286 284 283 284 288 290 292 293 296 297 303 303 303 303 304 305 304 305 306 307 309 311 311 311 311 310 309 307 304 302 301 298 296 292
278 278 277 276 277 280 282 287 288 289 292 293 295 299 300 300 302 303 304 304 304 305 306 308 311 312 312 313 312 312 310 308 306 304 303 301 297 294
272 274 276 277 278 278 283 287 288 290 292 293 296 297 297 298 301 303 303 303 304 305 307 310 312 313 313 313 314 314 311 310 307 306 304 301 298 297
273 274 275 277 279 281 284 287 290 291 293 294 295 295 296 299 301 302 302 302 303 307 308 311 313 314 313 313 314 313 312 311 308 306 304 301 299 299
272 275 278 279 280 284 287 289 291 292 293 293 294 295 297 299 300 301 300 302 305 308 310 312 314 315 314 314 314 315 314 311 308 308 303 301 302 300
271 275 280 281 281 284 288 289 290 293 293 293 294 295 295 298 299 299 301 304 307 309 312 313 315 316 315 315 314 316 314 312 310 306 302 301 300 298
275 278 278 282 285 287 288 290 292 292 293 295 295 295 297 298 298 301 304 306 308 311 312 313 316 315 314 314 313 315 314 313 312 308 306 303 302 299
275 280 283 284 285 287 289 291 291 293 295 295 297 299 300 301 302 303 305 307 310 311 312 314 315 314 314 312 312 312 313 313 312 310 308 303 303 299
280 282 283 285 287 288 291 294 295 294 296 300 302 302 302 303 304 306 306 309 310 311 313 314 314 314 313 312 312 311 313 312 310 308 306 302 303 298
281 282 286 292 293 292 293 296 298 299 302 303 302 303 303 303 305 306 308 309 310 312 314 314 314 314 311 310 309 310 311 310 308 307 304 301 301 295
281 285 291 296 302 301 297 298 299 300 303 304 303 303 304 304 305 309 310 311 312 312 312 313 313 312 312 312 310 309 309 306 305 303 300 298 297 295
284 290 293 295 296 300 303 302 302 303 304 304 305 304 303 305 309 310 311 311 311 312 311 313 313 313 313 311 308 305 304 302 300 298 296 293 293 289
285 289 292 296 298 301 302 303 304 305 306 307 307 306 308 310 310 311 310 311 311 312 313 313 315 315 313 312 310 306 305 306 302 295 291 288 288 282
285 287 290 293 297 301 303 305 306 308 309 310 312 311 310 310 311 310 311 312 312 313 314 314 316 314 314 315 312 309 309 313 309 297 290 286 286 283
282 285 288 292 296 299 301 304 307 310 310 312 312 310 310 310 309 310 313 314 314 315 316 317 318 317 318 318 318 314 314 308 303 296 294 287 288 285